Waco, TX

5:50 AM CDT on June 25, 2017 (GMT -0500)
Waco Regional

Weather History for KACT - September, 2012

Change the Weather History Date:

Wednesday, September 19, 2012

  Actual Average Record
Temperature  
Mean Temperature 69 °F 77 °F  
Max Temperature 85 °F 89 °F 104 °F (1956)
Min Temperature 53 °F 65 °F 45 °F (1981)
Degree Days  
Heating Degree Days 0 0  
Month to date heating degree days 0 0  
Since 1 July heating degree days 0 0  
Cooling Degree Days 4 12  
Month to date cooling degree days 273 284  
Year to date cooling degree days 2860 2479  
Growing Degree Days 18 (Base 50)    
Moisture  
Dew Point 52 °F    
Average Humidity 58    
Maximum Humidity 89    
Minimum Humidity 27    
Precipitation  
Precipitation 0.00 in 0.10 in 1.57 in (1988)
Month to date precipitation 1.34 1.92  
Year to date precipitation 28.18 24.08  
Sea Level Pressure  
Sea Level Pressure 30.08 in    
Wind  
Wind Speed 5 mph (South)    
Max Wind Speed 12 mph    
Max Gust Speed 16 mph    
Visibility 10 miles    
Events      
T = Trace of Precipitation, MM = Missing Value Source: NWS Daily Summary

Daily Weather History Graph

Daily Weather History Graph

Search for Another Location

Airport or City:

Trip Planner

Search our weather history database for the weather conditions in past years. The results will help you decide how hot, cold, wet, or windy it might be!

Date:

Astronomy

Sep. 19, 2012 Rise Set
Actual Time 7:15 AM CDT 7:28 PM CDT
Civil Twilight 6:51 AM CDT 7:53 PM CDT
Nautical Twilight 6:22 AM CDT 8:21 PM CDT
Astronomical Twilight 5:54 AM CDT 8:50 PM CDT
Moon 11:08 AM CDT (9/19) 9:59 PM CDT (9/19)
Length of Visible Light 13h 01m
Length of Day
12h 13m
Waxing Crescent, 17% of the Moon is Illuminated
Sep 19
Waxing Crescent
Sep 22
First Quarter
Sep 29
Full
Oct 8
Last Quarter
Oct 15
New

Hourly Weather History & Observations

Time (CDT) Temp. Heat Index Dew Point Humidity Pressure Visibility Wind Dir Wind Speed Gust Speed Precip Events Conditions
12:51 AM 63.0 °F - 50.0 °F 63% 30.08 in 10.0 mi NNW 5.8 mph - N/A   Clear
1:51 AM 60.1 °F - 51.1 °F 72% 30.08 in 10.0 mi NNW 4.6 mph - N/A   Clear
2:51 AM 55.9 °F - 50.0 °F 80% 30.08 in 10.0 mi NNW 3.5 mph - N/A   Clear
3:51 AM 57.2 °F - 50.0 °F 77% 30.09 in 10.0 mi NNE 3.5 mph - N/A   Clear
4:51 AM 53.1 °F - 50.0 °F 89% 30.08 in 10.0 mi Calm Calm - N/A   Clear
5:51 AM 53.1 °F - 48.9 °F 86% 30.10 in 10.0 mi Calm Calm - N/A   Clear
6:51 AM 53.6 °F - 50.0 °F 88% 30.12 in 10.0 mi WSW 3.5 mph - N/A   Clear
7:51 AM 55.0 °F - 52.0 °F 89% 30.12 in 10.0 mi Calm Calm - N/A   Clear
8:51 AM 64.9 °F - 53.1 °F 65% 30.13 in 10.0 mi Calm Calm - N/A   Clear
9:51 AM 69.1 °F - 57.9 °F 68% 30.14 in 10.0 mi South 4.6 mph - N/A   Clear
10:51 AM 75.0 °F - 55.9 °F 51% 30.14 in 10.0 mi SE 9.2 mph - N/A   Clear
11:51 AM 78.1 °F - 52.0 °F 40% 30.14 in 10.0 mi SSE 8.1 mph - N/A   Clear
12:51 PM 80.1 °F 79.9 °F 53.1 °F 39% 30.12 in 10.0 mi South 6.9 mph - N/A   Clear
1:51 PM 81.0 °F - 50.0 °F 34% 30.10 in 10.0 mi SSW 8.1 mph - N/A   Clear
2:51 PM 82.9 °F - 50.0 °F 32% 30.07 in 10.0 mi SE 6.9 mph - N/A   Clear
3:51 PM 84.0 °F - 50.0 °F 31% 30.05 in 10.0 mi SSE 4.6 mph - N/A   Clear
4:51 PM 84.9 °F - 46.9 °F 27% 30.03 in 10.0 mi SSW 6.9 mph - N/A   Clear
5:51 PM 84.2 °F - 46.4 °F 27% 30.04 in 10.0 mi South 4.6 mph - N/A   Clear
6:51 PM 82.0 °F - 51.1 °F 34% 30.02 in 10.0 mi SE 3.5 mph - N/A   Clear
7:51 PM 73.0 °F - 54.0 °F 51% 30.02 in 10.0 mi SE 5.8 mph - N/A   Clear
8:51 PM 73.0 °F - 54.0 °F 51% 30.03 in 10.0 mi SSE 6.9 mph - N/A   Clear
9:51 PM 72.0 °F - 55.9 °F 57% 30.06 in 10.0 mi South 4.6 mph - N/A   Clear
10:51 PM 68.0 °F - 57.9 °F 70% 30.06 in 10.0 mi South 5.8 mph - N/A   Clear
11:51 PM 69.1 °F - 53.1 °F 57% 30.05 in 10.0 mi SSE 6.9 mph - N/A   Clear